| time (UTC) | temp F | wind direction | speed MPH | gust MPH | rain 1hr in | rain 24hr in | rain mn in | humidity % | barometer mb |
| 20260504220756 | 61 | 188 | 0.0 | 0.0 | 0.00 | 0.01 | 0.01 | 63 | 1006.1 |
| 20260504215253 | 61 | 198 | 0.0 | 0.0 | 0.00 | 0.01 | 0.01 | 64 | 1005.9 |
| 20260504213821 | 62 | 180 | 0.0 | 0.0 | 0.00 | 0.01 | 0.01 | 65 | 1005.8 |
| 20260504212337 | 62 | 181 | 0.0 | 0.0 | 0.00 | 0.01 | 0.01 | 64 | 1005.7 |
| 20260504210822 | 62 | 186 | 0.0 | 0.0 | 0.00 | 0.01 | 0.01 | 65 | 1005.6 |
| 20260504203706 | 62 | 208 | 0.0 | 0.0 | 0.00 | 0.01 | 0.01 | 65 | 1005.5 |
| 20260504202158 | 62 | 182 | 0.0 | 4.0 | 0.00 | 0.01 | 0.01 | 66 | 1005.6 |
| 20260504200714 | 61 | 189 | 0.0 | 0.0 | 0.00 | 0.01 | 0.01 | 68 | 1005.6 |
| 20260504195228 | 60 | 172 | 0.0 | 0.0 | 0.00 | 0.01 | 0.01 | 69 | 1005.5 |
| 20260504193640 | 59 | 168 | 0.0 | 0.0 | 0.00 | 0.01 | 0.01 | 74 | 1005.6 |
| 20260504192057 | 57 | 197 | 0.0 | 0.0 | 0.00 | 0.01 | 0.01 | 76 | 1005.7 |
| 20260504184838 | 53 | 194 | 0.0 | 0.0 | 0.00 | 0.04 | 0.01 | 83 | 1006.5 |
| 20260504183303 | 52 | 205 | 0.0 | 0.0 | 0.00 | 0.05 | 0.01 | 81 | 1006.8 |
| 20260504181749 | 54 | 215 | 0.0 | 0.0 | 0.00 | 0.05 | 0.00 | 76 | 1006.9 |
| 20260504180202 | 56 | 195 | 0.0 | 0.0 | 0.00 | 0.06 | 0.00 | 68 | 1006.5 |
| 20260504171350 | 56 | 208 | 0.0 | 1.0 | 0.00 | 0.10 | 0.00 | 66 | 1006.0 |
| 20260504141317 | 56 | 201 | 0.0 | 0.0 | 0.00 | 0.27 | 0.00 | 53 | 1007.2 |
| 20260504080740 | 36 | 265 | 0.0 | 0.0 | 0.00 | 0.60 | 0.00 | 88 | 1007.3 |
| 20260504050001 | 36 | 265 | 0.0 | 0.0 | 0.00 | 0.67 | 0.00 | 87 | 1005.9 |
| 20260504044454 | 37 | 265 | 0.0 | 0.0 | 0.00 | 0.67 | 0.00 | 87 | 1006.0 |
| 20260504041247 | 37 | 265 | 0.0 | 0.0 | 0.00 | 0.67 | 0.00 | 87 | 1005.8 |
| 20260504035745 | 37 | 265 | 0.0 | 0.0 | 0.00 | 0.67 | 0.68 | 87 | 1005.7 |
| 20260504034226 | 37 | 265 | 0.0 | 0.0 | 0.00 | 0.67 | 0.68 | 87 | 1005.6 |
| 20260504032718 | 38 | 265 | 0.0 | 0.0 | 0.00 | 0.67 | 0.68 | 87 | 1005.5 |
| 20260504031225 | 38 | 265 | 0.0 | 0.0 | 0.00 | 0.67 | 0.68 | 87 | 1005.4 |
| 20260504025721 | 39 | 265 | 0.0 | 0.0 | 0.00 | 0.67 | 0.68 | 88 | 1005.3 |
| 20260504024259 | 39 | 265 | 0.0 | 0.0 | 0.00 | 0.67 | 0.68 | 88 | 1005.0 |
| 20260504022730 | 39 | 265 | 0.0 | 0.0 | 0.00 | 0.67 | 0.68 | 87 | 1005.1 |
| 20260504015606 | 40 | 265 | 0.0 | 0.0 | 0.00 | 0.67 | 0.68 | 89 | 1004.9 |
| 20260504014050 | 41 | 265 | 0.0 | 0.0 | 0.00 | 0.67 | 0.68 | 89 | 1004.7 |
| 20260504012539 | 42 | 265 | 0.0 | 0.0 | 0.00 | 0.67 | 0.68 | 89 | 1004.5 |
| 20260504005357 | 43 | 264 | 0.0 | 0.0 | 0.00 | 0.67 | 0.68 | 91 | 1004.0 |
| 20260504003924 | 43 | 264 | 0.0 | 0.0 | 0.00 | 0.67 | 0.68 | 91 | 1003.8 |
| 20260504002335 | 44 | 264 | 0.0 | 0.0 | 0.00 | 0.67 | 0.68 | 90 | 1003.5 |
| 20260504000818 | 45 | 264 | 0.0 | 0.0 | 0.00 | 0.67 | 0.68 | 90 | 1003.3 |
| 20260503235329 | 45 | 264 | 0.0 | 0.0 | 0.00 | 0.67 | 0.68 | 89 | 1003.1 |
| 20260503233840 | 46 | 264 | 0.0 | 0.0 | 0.00 | 0.67 | 0.68 | 89 | 1003.0 |
| 20260503232314 | 46 | 284 | 0.0 | 0.0 | 0.00 | 0.67 | 0.68 | 89 | 1002.6 |
| 20260503225124 | 46 | 275 | 0.0 | 0.0 | 0.00 | 0.67 | 0.68 | 88 | 1002.3 |